Back to catalog

KUIPER-00016

AliveCommunicationsLEO
NORAD 63732·PAYLOAD·🇺🇸 United States

Launched Apr 28, 2025 from Cape Canaveral Space Force Station

Loading…

Next Passes (next 24 hours)

TLE

FreshSource: CelesTrak SupGP

Epoch: Sep 14, 2026, 14:09 UTC

1 63732C 25088J   26257.59018519 -.00005236  00000+0 -68556-3 0  2571
2 63732  51.9011 355.2533 0000357 101.1683  65.4699 14.79926548    16

Track KUIPER-00016 in real time with AllMySat

Download on the App Store